This is the latest recevied weather packets stored in our database for station/object IZ1GCT. If no packets are shown the sender has not sent any weather packets the latest 10 day(s).
| Time | Temp. | Humidity | Pressure | Rain* | Wind** | Luminosity | Snow |
|---|---|---|---|---|---|---|---|
| 1777764653 | 12.78° C | 63% | 1023.6 hPa | 0 mm | - | - | - |
| 1777764352 | 12.78° C | 62% | 1023.6 hPa | 0 mm | - | - | - |
| 1777764054 | 12.78° C | 62% | 1023.7 hPa | 0 mm | - | - | - |
| 1777763753 | 12.78° C | 62% | 1023.8 hPa | 0 mm | - | - | - |
| 1777763453 | 13.33° C | 62% | 1023.7 hPa | 0 mm | - | - | - |
| 1777763152 | 13.33° C | 63% | 1023.8 hPa | 0 mm | - | - | - |
| 1777762854 | 12.78° C | 63% | 1023.8 hPa | 0 mm | - | - | - |
| 1777762553 | 12.78° C | 63% | 1023.8 hPa | 0 mm | - | - | - |
| 1777762252 | 13.33° C | 62% | 1023.9 hPa | 0 mm | - | - | - |
| 1777761953 | 13.33° C | 62% | 1023.9 hPa | 0 mm | - | - | - |
| 1777761653 | 13.89° C | 61% | 1023.9 hPa | 0 mm | - | - | - |
| 1777761352 | 14.44° C | 60% | 1023.9 hPa | 0 mm | - | - | - |
| 1777761054 | 14.44° C | 60% | 1024 hPa | 0 mm | - | - | - |
| 1777760753 | 13.89° C | 61% | 1024 hPa | 0 mm | - | - | - |
| 1777760453 | 13.33° C | 62% | 1024 hPa | 0 mm | - | - | - |
| 1777760152 | 13.33° C | 62% | 1024.1 hPa | 0 mm | - | - | - |
| 1777759853 | 13.33° C | 62% | 1024.1 hPa | 0 mm | - | - | - |
| 1777759552 | 13.33° C | 62% | 1024.2 hPa | 0 mm | - | - | - |
| 1777759252 | 13.89° C | 61% | 1024.2 hPa | 0 mm | - | - | - |
| 1777758953 | 13.89° C | 61% | 1024.1 hPa | 0 mm | - | - | - |
| 1777758653 | 13.89° C | 61% | 1024.2 hPa | 0 mm | - | - | - |
| 1777758352 | 13.89° C | 62% | 1024.1 hPa | 0 mm | - | - | - |
| 1777758053 | 13.89° C | 62% | 1024.3 hPa | 0 mm | - | - | - |
| 1777757752 | 13.33° C | 62% | 1024.2 hPa | 0 mm | - | - | - |
| 1777757454 | 13.89° C | 62% | 1024.2 hPa | 0 mm | - | - | - |
* Rain latest hour (hover to see other rain measurements)
** Current wind speed in m/s (hover to see current wind gust speed)